Погода в Малоярославеце

Погода в Малоярославеце : погода сейчас, прогноз погоды и архив. Всё, что Вы хотите узнать о погоде в Малоярославеце!

Хотите узнать прогноз погоды в Малоярославеце? Тогда Вам сюда: Погода в Малоярославеце

Поиск расширенной информации на нашем сайте:

Другие новости

Новости СМИ2

Главная страница сайта

Новости сайта

03.07.2017

Напоминаем, что на нашем специализированном сайте Метеоцентр.Азия вы можете получить высокодетализированные автоматические прогнозы погоды по пунктам России, СНГ и мира в авиационном формате (включающие направление и скорость ветра, видимость, явления погоды, количество и форму облачности, нижнюю и верхнюю границу облачности).


Погода в Малоярославеце - сегодня

Время (UTC), дата Ветер
(°,м/с) 
Видим.   Явления Облачность Т
(°С)
Тd
(°С)
f(%) Тe
(°С)
Pmin
(гПа)
dP
(гПа)
Po
(мм)
O2
(г/м3)
Тmin Tmax R s Состояние
почвы
21 18.06.18 тихо ()   н/о    1/0 средняя 
[Ac lent]
+16.9 +13.1 78 +23  1015.2  -0.1  744  280           
00 19.06.18 тихо ()   н/о    3/0 средняя, верхняя 
[Ac lent|Ci fib]
+14.6 +12.8 89 +20  1015.4  744  282           
09 19.06.18 230 (ЮЗ) 20000 м    6/0 средняя, верхняя 
[Ac trans|Ci fib]
+23.6 +10.2 43 +25  1013.1  -0.7  743  274           
12 19.06.18 200 (Ю) 20000 м    4/3 300 м верхняя 
[Cu Sc|Ci fib]
+27.4 +12.3 39 +32  1011.6  -1.2  742  269           
09 20.06.18 230 (ЮЗ) 20000 м    3/1 600 м верхняя 
[Cu hum|Ci sp]
+20.5 +4.5 35 +21  1011.7  742  277           
12 20.06.18 270 (З) 20000 м    5/5 600 м 
[Cu Sc]
+21.7 +5.8 36 +22  1010.7  -0.9  741  276           
15 20.06.18 270 (З) 20000 м    5/5 600 м 
[Cu Sc]
+22 +6.2 36 +22  1009.9  -0.6  740  275           
21 20.06.18 270 (З) н/о    1/0 верхняя 
[Ci fib]
+17.2 +11.3 68 +22  1012.3  1.1  742  279           
00 21.06.18 320 (СЗ) н/о    1/0 средняя 
[Ac lent]
+12.5 +9.5 82 +15  1013.1  0.4  742  284           
03 21.06.18 270 (З) 20000 м    ясно 
+12.6 +9.3 80 +13  1013.6  0.5  743  284  +10.7         
09 21.06.18 250 (З) 20000 м    ясно 
+22.9 +7.7 38 +23  1012.5  -0.8  742  275           
12 21.06.18 250 (З) 20000 м    6/6 600 м 
[Cu Sc]
+25 +11 41 +28  1011.5  -0.8  742  272           
15 21.06.18 270 (З) 20000 м    4/3 600 м средняя 
[Cu hum|Ac trans]
+25.4 +12.2 44 +30  1011.5  742  271           
21 21.06.18 тихо ()   н/о    ясно 
+16.4 +11.4 72 +20  1012.7  0.2  742  280           
00 22.06.18 тихо ()   н/о    1/0 верхняя 
[Ci fib]
+14.8 +11.7 82 +19  1012.1  -0.7  742  281           
09 22.06.18 200 (Ю) 5-10  20000 м    5/3 600 м верхняя 
[Cu hum|Ci fib]
+28.1 +14.8 44 +37  1008.6  -1.1  740  267           
12 22.06.18 180 (Ю) 20000 м    8/8 600 м 
[Cu med, cong]
+28.5 +14.5 42 +37  1007.6  -0.9  739  267           
15 22.06.18 230 (ЮЗ) 20000 м    4/3 600 м верхняя 
[Cu med, cong|Ci fib]
+29.3 +14.7 41 +38  1007.3  -0.3  739  266           
21 22.06.18 270 (З) 20000 м    3/1 600 м верхняя 
[Sc|Ci fib]
+19.5 +14.9 75 +30  1010  1.5  740  275           
09 23.06.18 050 (СВ) 20000 м    9/0 средняя, верхняя 
[Ac trans|Ci fib]
+22.6 +12.8 54 +28  1010  -1.1  741  273           
12 23.06.18 050 (СВ) 20000 м    5/4 600 м верхняя 
[Cu Sc|Ci fib]
+23 +8.4 39 +23  1007.8  -2.2  739  273           
15 23.06.18 020 (С) 20000 м    5/1 600 м средняя, верхняя 
[Cu hum|As trans|Ci fib]
+28.4 +11.9 36 +33  1005.7  -1.6  738  267           
21 23.06.18 360 (С) н/о    10/10 540 м 
[Sc]
+20.6 +16.6 78 +33  1006.3  0.9  738  273           
09 24.06.18 230 (ЮЗ) 20000 м    10/4 600 м средняя 
[Cu hum|As trans]
+24.4 +14.9 55 +33  1007.5  1.7  739  270           
21 24.06.18 тихо ()   н/о    8/0 средняя 
[Ac trans]
+14.9 +13.8 93 +22  1013.7  743  281           
Время (UTC), дата Ветер
(°,м/с) 
Видим.   Явления Облачность Т
(°С)
Тd
(°С)
f(%) Тe
(°С)
Pmin
(гПа)
dP
(гПа)
Po
(мм)
O2
(г/м3)
Тmin Tmax R s Состояние
почвы

Для получения пояснительной информации подведите курсор к названию столбца.

ПОГОДА в Малоярославеце - архив

Всё, что Вы хотите узнать о погоде в Малоярославеце - удобно и подробно!

Выберите нужную дату (начиная с 1 января 2015* года) и нажмите кнопку "Найти".
Будут отображены архивные сводки погоды по пункту Малоярославец, начиная с указанной даты.


Отображать данные в формате CSV (для использования в таблицах Excel)


Внимание! Наш архив погоды предназначен исключительно для личного некоммерческого использования в познавательных целях. Если Вам необходимы официальные справки о состоянии погоды (для производственных, юридических, коммерческих и т.п. целей), обращайтесь в органы Росгидромета.

*Примечание: данная дата относится к архиву по метеостанциям СССР (Россия, СНГ, Балтия).
Архив по метеостанциям Зарубежной Европы и Азии (кроме Китая) хранится 10 дней, по другим регионам земного шара (Китай, Африка, Америка, Австралия, Океания) - 1 день.

Малоярославец - район местоположения метеостанции


Название, широта, долгота, высота метеостанции:
Малоярославец 55°ш. 36.5°д. 197 м над ур. моря [Российская Федерация]

Дополнительная информация

В oтличие oт бoльшинства пoгoдных сайтoв мы публикуем пoдрoбную метеoинфoрмацию в детальнoм прoфессиoнальнoм фoрмате.

Характеристики температуры и влажнoсти вoздуха измеряются на высoте 2 м в тени вдали oт зданий и деревьев.
Скoрoсть ветра измеряется на высoте 10 м (на урoвне рoста челoвека скoрoсть ветра ниже в 1.5-2 раза). Если метеoстанция нахoдится в гoрoде или в лесу, тo скoрoсть ветра занижена на 2-4 м/с пo сравнению с oткрытым местoм. Скoрoсть ветра над акватoриями крупных рек и oзёр, а также на вершинах хoлмoв на 2-5 м/с выше, чем в oбычных услoвиях.
Атмoсфернoе давление в разных тoчках местнoсти мoжет значительнo oтличаться oт давления на метеoстанции, в зависимoсти oт услoвий рельефа (при пoдъёме на 10 м давление пoнижается примернo на 1 мм рт.ст.).